Language: 


Des rapports , des résumés tant et plus, au choix de chacun....


Données statistiques de la station
Quotidien Rapport Juillet 18, 2017 Unités:  Métrique    Anglais   les deux
« Précédent Jour
Suivant Jour »
Quotidien Hebdomadaire Mensuel Annuel Actuel
  Haut: Bas: Moyen:
Température: 33.2 °C 13.3 °C 23.4 °C
Pt de rosée: 18.0 °C 12.0 °C 14.9 °C
Humidité: 95 % 37 % 62 %
Vitesse du vent: 21.2 km/h 0.0 km/h 8.2 km/h
Rafales: 21.2 km/h - -
Vent:- - ENE
Pression: 1020.9 hPa 1010.0 hPa -
Précipitation: 0.0 mm    
Historical Graphs
 
 
Données statistiques pour Juillet 18, 2017
Heure Température Point de rosée Pression Vent Vitesse du vent Refales Humidité Pluie (taux horaire)
00:03 16.8 °C 12.0 °C 1019.9 hPa Calm   5.0 km/h 73 % 0.0 mm
00:08 16.6 °C 12.0 °C 1019.9 hPa NNE 6.1 km/h 6.1 km/h 73 % 0.0 mm
00:13 16.4 °C 12.0 °C 1020.9 hPa Calm   6.1 km/h 74 % 0.0 mm
00:18 16.2 °C 12.0 °C 1020.9 hPa NNE 5.8 km/h 6.1 km/h 75 % 0.0 mm
00:23 16.1 °C 12.0 °C 1020.9 hPa NNE 5.8 km/h 5.8 km/h 77 % 0.0 mm
00:28 15.9 °C 12.0 °C 1020.9 hPa NNE 5.8 km/h 5.8 km/h 78 % 0.0 mm
00:33 15.8 °C 12.0 °C 1020.9 hPa NNE 6.1 km/h 6.1 km/h 78 % 0.0 mm
00:38 15.7 °C 12.0 °C 1020.9 hPa ENE 6.1 km/h 6.1 km/h 79 % 0.0 mm
00:43 15.6 °C 12.0 °C 1020.9 hPa Calm   6.1 km/h 79 % 0.0 mm
00:48 15.5 °C 13.0 °C 1020.9 hPa Calm   6.1 km/h 80 % 0.0 mm
00:53 15.4 °C 12.0 °C 1020.9 hPa North 2.1 km/h 7.6 km/h 81 % 0.0 mm
00:58 15.4 °C 12.0 °C 1020.9 hPa NNE 7.6 km/h 8.7 km/h 81 % 0.0 mm
01:03 15.3 °C 12.0 °C 1020.9 hPa NE 5.8 km/h 8.7 km/h 81 % 0.0 mm
01:08 15.2 °C 13.0 °C 1020.9 hPa Calm   7.6 km/h 82 % 0.0 mm
01:13 15.1 °C 12.0 °C 1019.9 hPa ENE 4.7 km/h 6.1 km/h 82 % 0.0 mm
01:18 15.0 °C 12.0 °C 1019.9 hPa Calm   5.0 km/h 83 % 0.0 mm
01:23 15.0 °C 12.0 °C 1019.9 hPa Calm   4.7 km/h 83 % 0.0 mm
01:28 14.9 °C 12.0 °C 1020.9 hPa NE 5.0 km/h 5.0 km/h 83 % 0.0 mm
01:33 14.9 °C 13.0 °C 1020.9 hPa NNE 4.0 km/h 5.0 km/h 84 % 0.0 mm
01:38 14.8 °C 13.0 °C 1020.9 hPa Calm   5.0 km/h 85 % 0.0 mm
01:44 14.8 °C 13.0 °C 1020.9 hPa NNE 6.1 km/h 6.1 km/h 85 % 0.0 mm
01:48 14.8 °C 13.0 °C 1020.9 hPa NNE 3.2 km/h 8.7 km/h 85 % 0.0 mm
01:53 14.8 °C 13.0 °C 1020.9 hPa NNE 6.4 km/h 8.7 km/h 85 % 0.0 mm
01:58 14.7 °C 13.0 °C 1020.9 hPa Calm   6.4 km/h 85 % 0.0 mm
02:04 14.7 °C 13.0 °C 1020.9 hPa NNE 5.0 km/h 6.4 km/h 86 % 0.0 mm
02:09 14.6 °C 13.0 °C 1020.9 hPa NNE 8.7 km/h 8.7 km/h 86 % 0.0 mm
02:14 14.6 °C 13.0 °C 1020.9 hPa Calm   8.7 km/h 87 % 0.0 mm
02:19 14.6 °C 13.0 °C 1020.9 hPa ENE 5.8 km/h 8.7 km/h 88 % 0.0 mm
02:24 14.6 °C 13.0 °C 1020.9 hPa NNE 7.6 km/h 7.6 km/h 88 % 0.0 mm
02:29 14.6 °C 13.0 °C 1020.9 hPa NNE 7.6 km/h 7.6 km/h 89 % 0.0 mm
02:34 14.7 °C 13.0 °C 1020.9 hPa North 2.1 km/h 7.6 km/h 89 % 0.0 mm
02:39 14.6 °C 13.0 °C 1020.9 hPa Calm   7.6 km/h 89 % 0.0 mm
02:44 14.7 °C 13.0 °C 1020.9 hPa Calm   2.1 km/h 89 % 0.0 mm
02:49 14.6 °C 13.0 °C 1020.9 hPa Calm     89 % 0.0 mm
02:54 14.5 °C 13.0 °C 1020.9 hPa NE 4.0 km/h 4.0 km/h 89 % 0.0 mm
02:59 14.5 °C 13.0 °C 1020.9 hPa NE 4.0 km/h 4.0 km/h 89 % 0.0 mm
03:04 14.4 °C 13.0 °C 1020.9 hPa Calm   4.0 km/h 89 % 0.0 mm
03:09 14.2 °C 13.0 °C 1020.9 hPa Calm   4.0 km/h 89 % 0.0 mm
03:14 14.2 °C 13.0 °C 1019.9 hPa NNE 4.3 km/h 4.3 km/h 90 % 0.0 mm
03:19 14.1 °C 13.0 °C 1019.9 hPa Calm   4.3 km/h 90 % 0.0 mm
03:24 14.0 °C 13.0 °C 1019.9 hPa North 6.4 km/h 6.4 km/h 90 % 0.0 mm
03:29 14.0 °C 13.0 °C 1019.9 hPa North 6.4 km/h 6.4 km/h 91 % 0.0 mm
03:34 13.9 °C 13.0 °C 1019.9 hPa North 6.1 km/h 6.4 km/h 92 % 0.0 mm
03:39 13.9 °C 13.0 °C 1019.9 hPa NE 5.8 km/h 6.4 km/h 92 % 0.0 mm
03:44 13.8 °C 13.0 °C 1019.9 hPa NE 5.5 km/h 6.1 km/h 92 % 0.0 mm
03:50 13.8 °C 13.0 °C 1019.9 hPa NNE 3.2 km/h 6.1 km/h 92 % 0.0 mm
03:55 13.7 °C 13.0 °C 1019.9 hPa NNE 3.2 km/h 5.5 km/h 93 % 0.0 mm
04:00 13.7 °C 13.0 °C 1018.8 hPa NNE 3.2 km/h 3.2 km/h 92 % 0.0 mm
04:05 13.7 °C 13.0 °C 1018.8 hPa NNE 6.1 km/h 6.1 km/h 93 % 0.0 mm
04:10 13.7 °C 13.0 °C 1018.8 hPa NE 5.5 km/h 6.4 km/h 93 % 0.0 mm
04:15 13.7 °C 13.0 °C 1018.8 hPa NE 5.5 km/h 6.4 km/h 93 % 0.0 mm
04:20 13.6 °C 13.0 °C 1018.8 hPa NE 5.5 km/h 5.5 km/h 93 % 0.0 mm
04:25 13.6 °C 13.0 °C 1018.8 hPa North 4.0 km/h 6.9 km/h 93 % 0.0 mm
04:30 13.6 °C 13.0 °C 1018.8 hPa North 7.9 km/h 7.9 km/h 93 % 0.0 mm
04:35 13.6 °C 13.0 °C 1018.8 hPa NNE 5.0 km/h 7.9 km/h 93 % 0.0 mm
04:40 13.5 °C 13.0 °C 1018.8 hPa NNE 5.0 km/h 7.9 km/h 93 % 0.0 mm
04:45 13.5 °C 13.0 °C 1018.8 hPa NNE 5.0 km/h 5.0 km/h 94 % 0.0 mm
04:50 13.5 °C 13.0 °C 1018.8 hPa NNE 5.0 km/h 5.0 km/h 94 % 0.0 mm
04:55 13.5 °C 13.0 °C 1018.8 hPa NNE 5.0 km/h 5.0 km/h 94 % 0.0 mm
05:00 13.4 °C 13.0 °C 1018.8 hPa NNE 5.0 km/h 5.0 km/h 94 % 0.0 mm
05:05 13.4 °C 13.0 °C 1018.8 hPa NNE 4.7 km/h 4.7 km/h 94 % 0.0 mm
05:10 13.4 °C 13.0 °C 1018.8 hPa NNE 4.7 km/h 4.7 km/h 94 % 0.0 mm
05:15 13.3 °C 13.0 °C 1018.8 hPa Calm   5.5 km/h 94 % 0.0 mm
05:20 13.3 °C 13.0 °C 1018.8 hPa NNE 7.9 km/h 7.9 km/h 94 % 0.0 mm
05:25 13.4 °C 13.0 °C 1018.2 hPa NE 4.3 km/h 7.9 km/h 94 % 0.0 mm
05:31 13.4 °C 13.0 °C 1018.2 hPa NNE 5.5 km/h 7.9 km/h 94 % 0.0 mm
05:36 13.4 °C 13.0 °C 1018.2 hPa North 5.5 km/h 5.8 km/h 94 % 0.0 mm
05:41 13.4 °C 13.0 °C 1018.8 hPa North 5.5 km/h 5.5 km/h 94 % 0.0 mm
05:46 13.4 °C 13.0 °C 1018.8 hPa North 4.3 km/h 5.5 km/h 94 % 0.0 mm
05:51 13.5 °C 13.0 °C 1018.8 hPa Calm   5.5 km/h 94 % 0.0 mm
05:56 13.5 °C 13.0 °C 1018.8 hPa NNE 4.7 km/h 5.8 km/h 94 % 0.0 mm
06:01 13.5 °C 13.0 °C 1018.8 hPa NE 5.5 km/h 5.8 km/h 94 % 0.0 mm
06:06 13.6 °C 13.0 °C 1018.8 hPa NNE 5.8 km/h 5.8 km/h 94 % 0.0 mm
06:08 13.6 °C 13.0 °C 1018.8 hPa NNE 5.8 km/h 5.8 km/h 94 % 0.0 mm
06:13 13.7 °C 13.0 °C 1018.8 hPa NNE 5.8 km/h 5.8 km/h 95 % 0.0 mm
06:14 13.7 °C 13.0 °C 1018.8 hPa NNE 4.0 km/h 5.8 km/h 95 % 0.0 mm
06:19 13.7 °C 13.0 °C 1018.8 hPa NNE 4.0 km/h 5.8 km/h 95 % 0.0 mm
06:24 13.8 °C 13.0 °C 1018.8 hPa NE 2.6 km/h 7.6 km/h 95 % 0.0 mm
06:29 13.9 °C 13.0 °C 1018.8 hPa NE 2.6 km/h 7.6 km/h 95 % 0.0 mm
06:34 14.1 °C 13.0 °C 1018.8 hPa Calm   2.6 km/h 94 % 0.0 mm
06:39 14.2 °C 13.0 °C 1018.8 hPa Calm   2.6 km/h 94 % 0.0 mm
06:44 14.5 °C 14.0 °C 1018.8 hPa Calm   2.6 km/h 94 % 0.0 mm
06:49 14.8 °C 14.0 °C 1018.8 hPa Calm     94 % 0.0 mm
06:54 15.1 °C 14.0 °C 1018.8 hPa Calm     94 % 0.0 mm
06:59 15.2 °C 14.0 °C 1018.8 hPa Calm     93 % 0.0 mm
07:04 15.4 °C 14.0 °C 1018.8 hPa Calm     92 % 0.0 mm
07:09 15.8 °C 14.0 °C 1018.8 hPa Calm     92 % 0.0 mm
07:14 16.3 °C 15.0 °C 1018.8 hPa ENE 6.4 km/h 6.4 km/h 91 % 0.0 mm
07:19 16.7 °C 15.0 °C 1018.8 hPa NE 9.3 km/h 9.3 km/h 90 % 0.0 mm
07:25 17.1 °C 15.0 °C 1018.8 hPa NE 5.8 km/h 9.3 km/h 87 % 0.0 mm
07:30 17.4 °C 15.0 °C 1018.2 hPa NE 11.1 km/h 11.1 km/h 86 % 0.0 mm
07:35 17.5 °C 15.0 °C 1018.2 hPa ENE 8.7 km/h 11.1 km/h 84 % 0.0 mm
07:40 17.5 °C 15.0 °C 1018.2 hPa East 11.6 km/h 11.6 km/h 83 % 0.0 mm
07:45 17.6 °C 15.0 °C 1018.2 hPa East 9.3 km/h 11.6 km/h 82 % 0.0 mm
07:50 17.5 °C 15.0 °C 1018.2 hPa NE 4.3 km/h 10.5 km/h 82 % 0.0 mm
07:55 17.4 °C 14.0 °C 1018.2 hPa ENE 4.0 km/h 9.7 km/h 81 % 0.0 mm
08:00 17.3 °C 14.0 °C 1018.2 hPa ENE 6.1 km/h 9.7 km/h 81 % 0.0 mm
08:05 17.5 °C 14.0 °C 1018.2 hPa NE 6.9 km/h 7.9 km/h 81 % 0.0 mm
08:10 17.7 °C 14.0 °C 1018.2 hPa NE 4.7 km/h 7.9 km/h 81 % 0.0 mm
08:15 17.9 °C 15.0 °C 1018.2 hPa NE 5.8 km/h 9.7 km/h 81 % 0.0 mm
08:20 18.2 °C 15.0 °C 1018.2 hPa East 9.3 km/h 9.7 km/h 80 % 0.0 mm
08:25 18.6 °C 15.0 °C 1018.2 hPa NE 10.1 km/h 10.1 km/h 79 % 0.0 mm
08:30 18.8 °C 15.0 °C 1018.2 hPa ENE 6.9 km/h 10.1 km/h 78 % 0.0 mm
08:35 19.0 °C 15.0 °C 1018.2 hPa ENE 4.3 km/h 10.1 km/h 75 % 0.0 mm
08:40 19.0 °C 15.0 °C 1018.2 hPa East 10.1 km/h 11.1 km/h 76 % 0.0 mm
08:45 19.1 °C 14.0 °C 1018.2 hPa ESE 2.1 km/h 11.1 km/h 74 % 0.0 mm
08:50 19.1 °C 14.0 °C 1018.2 hPa NE 5.8 km/h 12.2 km/h 74 % 0.0 mm
08:52 19.1 °C 14.0 °C 1018.2 hPa East 4.3 km/h 12.2 km/h 74 % 0.0 mm
08:57 19.3 °C 14.0 °C 1018.2 hPa Calm   10.5 km/h 73 % 0.0 mm
09:02 19.7 °C 15.0 °C 1018.2 hPa NE 6.4 km/h 14.0 km/h 72 % 0.0 mm
09:07 19.9 °C 15.0 °C 1018.2 hPa East 7.9 km/h 14.0 km/h 72 % 0.0 mm
09:12 19.8 °C 14.0 °C 1018.2 hPa NE 5.8 km/h 12.2 km/h 70 % 0.0 mm
09:17 20.0 °C 14.0 °C 1018.2 hPa Calm   12.2 km/h 70 % 0.0 mm
09:22 20.3 °C 14.0 °C 1018.2 hPa East 10.8 km/h 12.2 km/h 69 % 0.0 mm
09:27 21.2 °C 15.0 °C 1018.2 hPa East 5.5 km/h 12.2 km/h 69 % 0.0 mm
09:32 21.8 °C 15.0 °C 1018.2 hPa East 9.3 km/h 13.0 km/h 67 % 0.0 mm
09:37 22.0 °C 15.0 °C 1018.2 hPa NE 7.9 km/h 13.0 km/h 66 % 0.0 mm
09:42 22.2 °C 15.0 °C 1018.2 hPa ESE 11.9 km/h 13.0 km/h 64 % 0.0 mm
09:47 22.4 °C 15.0 °C 1018.2 hPa ESE 5.5 km/h 13.0 km/h 64 % 0.0 mm
09:52 22.2 °C 15.0 °C 1018.2 hPa East 9.3 km/h 13.7 km/h 63 % 0.0 mm
09:58 21.9 °C 15.0 °C 1018.2 hPa East 7.9 km/h 13.7 km/h 64 % 0.0 mm
10:03 22.2 °C 15.0 °C 1018.2 hPa ENE 5.5 km/h 13.7 km/h 64 % 0.0 mm
10:08 22.4 °C 15.0 °C 1018.2 hPa NE 6.9 km/h 11.9 km/h 64 % 0.0 mm
10:13 22.7 °C 16.0 °C 1016.8 hPa NE 6.4 km/h 12.2 km/h 64 % 0.0 mm
10:18 23.0 °C 15.0 °C 1016.8 hPa ENE 13.7 km/h 14.0 km/h 61 % 0.0 mm
10:23 23.4 °C 16.0 °C 1016.8 hPa NE 4.7 km/h 14.0 km/h 62 % 0.0 mm
10:28 23.8 °C 16.0 °C 1016.8 hPa East 14.0 km/h 14.0 km/h 62 % 0.0 mm
10:33 23.9 °C 16.0 °C 1016.8 hPa NE 4.3 km/h 14.0 km/h 59 % 0.0 mm
10:38 24.6 °C 17.0 °C 1016.8 hPa East 2.1 km/h 14.0 km/h 60 % 0.0 mm
10:43 24.8 °C 16.0 °C 1016.8 hPa ESE 12.2 km/h 13.0 km/h 59 % 0.0 mm
10:48 25.1 °C 16.0 °C 1016.8 hPa ENE 12.6 km/h 16.6 km/h 57 % 0.0 mm
10:53 25.2 °C 16.0 °C 1016.8 hPa East 9.7 km/h 16.6 km/h 56 % 0.0 mm
10:58 25.5 °C 17.0 °C 1016.8 hPa East 10.1 km/h 13.7 km/h 57 % 0.0 mm
11:03 25.5 °C 16.0 °C 1016.8 hPa ENE 12.2 km/h 14.0 km/h 55 % 0.0 mm
11:08 25.8 °C 16.0 °C 1016.8 hPa East 6.4 km/h 14.0 km/h 56 % 0.0 mm
11:13 26.1 °C 16.0 °C 1016.1 hPa ENE 8.7 km/h 14.0 km/h 53 % 0.0 mm
11:18 26.3 °C 17.0 °C 1016.1 hPa East 7.9 km/h 11.9 km/h 55 % 0.0 mm
11:23 26.5 °C 17.0 °C 1016.1 hPa SE 13.0 km/h 13.0 km/h 54 % 0.0 mm
11:28 26.8 °C 17.0 °C 1016.8 hPa East 9.3 km/h 14.0 km/h 53 % 0.0 mm
11:33 26.9 °C 17.0 °C 1016.8 hPa ENE 5.5 km/h 14.0 km/h 53 % 0.0 mm
11:38 27.2 °C 17.0 °C 1016.8 hPa East 9.7 km/h 16.6 km/h 51 % 0.0 mm
11:43 27.3 °C 16.0 °C 1016.8 hPa ENE 6.9 km/h 16.6 km/h 50 % 0.0 mm
11:46 27.3 °C 16.0 °C 1016.8 hPa NE 19.5 km/h 20.6 km/h 49 % 0.0 mm
11:51 27.5 °C 17.0 °C 1016.8 hPa NE 10.5 km/h 20.6 km/h 50 % 0.0 mm
11:56 27.9 °C 17.0 °C 1016.8 hPa NE 8.7 km/h 19.5 km/h 49 % 0.0 mm
12:01 28.2 °C 17.0 °C 1016.8 hPa East 11.9 km/h 19.1 km/h 49 % 0.0 mm
12:03 28.1 °C 16.0 °C 1016.8 hPa NNE 13.7 km/h 19.1 km/h 46 % 0.0 mm
12:08 28.1 °C 16.0 °C 1016.8 hPa East 10.1 km/h 19.1 km/h 47 % 0.0 mm
12:13 28.1 °C 15.0 °C 1016.1 hPa ENE 13.7 km/h 17.2 km/h 45 % 0.0 mm
12:18 28.1 °C 15.0 °C 1016.1 hPa ESE 8.7 km/h 20.6 km/h 45 % 0.0 mm
12:23 28.6 °C 17.0 °C 1016.1 hPa East 11.9 km/h 20.6 km/h 47 % 0.0 mm
12:28 28.8 °C 16.0 °C 1016.1 hPa ESE 10.5 km/h 18.0 km/h 46 % 0.0 mm
12:33 28.9 °C 17.0 °C 1016.1 hPa East 10.5 km/h 18.0 km/h 46 % 0.0 mm
12:38 29.1 °C 16.0 °C 1016.1 hPa ENE 13.0 km/h 16.9 km/h 44 % 0.0 mm
12:43 29.4 °C 16.0 °C 1016.1 hPa East 17.2 km/h 17.2 km/h 45 % 0.0 mm
12:44 29.4 °C 16.0 °C 1016.1 hPa East 16.6 km/h 20.6 km/h 44 % 0.0 mm
12:49 29.4 °C 16.0 °C 1016.1 hPa East 9.7 km/h 20.6 km/h 44 % 0.0 mm
12:54 29.6 °C 16.0 °C 1016.1 hPa NE 5.5 km/h 20.6 km/h 44 % 0.0 mm
12:59 29.5 °C 16.0 °C 1015.1 hPa NE 17.2 km/h 20.6 km/h 43 % 0.0 mm
13:04 29.4 °C 15.0 °C 1015.1 hPa East 10.8 km/h 20.9 km/h 43 % 0.0 mm
13:09 29.9 °C 16.0 °C 1015.1 hPa East 5.0 km/h 20.9 km/h 44 % 0.0 mm
13:14 30.1 °C 16.0 °C 1015.1 hPa NE 5.8 km/h 17.2 km/h 42 % 0.0 mm
13:19 30.2 °C 16.0 °C 1015.1 hPa ENE 12.2 km/h 15.8 km/h 43 % 0.0 mm
13:24 30.4 °C 16.0 °C 1015.1 hPa East 13.0 km/h 15.8 km/h 42 % 0.0 mm
13:29 30.5 °C 17.0 °C 1014.1 hPa ENE 16.9 km/h 16.9 km/h 43 % 0.0 mm
13:34 30.5 °C 16.0 °C 1014.1 hPa ENE 9.0 km/h 16.9 km/h 42 % 0.0 mm
13:39 30.6 °C 17.0 °C 1014.1 hPa NE 9.3 km/h 16.9 km/h 43 % 0.0 mm
13:44 30.8 °C 16.0 °C 1015.1 hPa East 15.8 km/h 15.8 km/h 42 % 0.0 mm
13:49 30.8 °C 16.0 °C 1015.1 hPa ENE 12.2 km/h 15.8 km/h 41 % 0.0 mm
13:54 30.8 °C 16.0 °C 1015.1 hPa East 10.1 km/h 19.8 km/h 41 % 0.0 mm
13:59 30.9 °C 16.0 °C 1015.1 hPa NE 6.4 km/h 20.1 km/h 41 % 0.0 mm
14:04 30.9 °C 17.0 °C 1015.1 hPa East 10.5 km/h 20.1 km/h 42 % 0.0 mm
14:09 31.0 °C 16.0 °C 1015.1 hPa ENE 10.5 km/h 15.8 km/h 41 % 0.0 mm
14:14 31.0 °C 16.0 °C 1015.1 hPa NE 11.9 km/h 15.8 km/h 41 % 0.0 mm
14:20 31.2 °C 17.0 °C 1015.1 hPa ESE 10.1 km/h 20.9 km/h 41 % 0.0 mm
14:25 31.5 °C 17.0 °C 1015.1 hPa ESE 6.9 km/h 20.9 km/h 41 % 0.0 mm
14:30 31.8 °C 17.0 °C 1015.1 hPa East 8.7 km/h 16.3 km/h 41 % 0.0 mm
14:35 31.8 °C 17.0 °C 1015.1 hPa East 14.0 km/h 14.0 km/h 41 % 0.0 mm
14:40 31.8 °C 17.0 °C 1015.1 hPa ENE 10.5 km/h 15.4 km/h 40 % 0.0 mm
14:45 32.1 °C 17.0 °C 1014.1 hPa SE 10.1 km/h 15.4 km/h 40 % 0.0 mm
14:50 32.0 °C 17.0 °C 1014.1 hPa East 11.9 km/h 16.6 km/h 39 % 0.0 mm
14:55 31.6 °C 17.0 °C 1014.1 hPa ENE 12.2 km/h 17.7 km/h 40 % 0.0 mm
15:00 31.8 °C 17.0 °C 1014.1 hPa ENE 6.9 km/h 17.7 km/h 40 % 0.0 mm
15:05 31.6 °C 17.0 °C 1014.1 hPa NE 13.7 km/h 19.5 km/h 40 % 0.0 mm
15:10 31.5 °C 17.0 °C 1014.1 hPa East 9.7 km/h 19.5 km/h 40 % 0.0 mm
15:15 32.0 °C 17.0 °C 1014.1 hPa ESE 5.8 km/h 19.5 km/h 40 % 0.0 mm
15:20 31.9 °C 17.0 °C 1014.1 hPa East 9.0 km/h 16.3 km/h 40 % 0.0 mm
15:25 32.0 °C 17.0 °C 1013.1 hPa ENE 14.0 km/h 16.3 km/h 39 % 0.0 mm
15:30 32.1 °C 17.0 °C 1013.1 hPa East 13.7 km/h 15.8 km/h 39 % 0.0 mm
15:35 32.3 °C 17.0 °C 1013.1 hPa ENE 8.7 km/h 17.2 km/h 39 % 0.0 mm
15:40 32.6 °C 17.0 °C 1013.1 hPa East 11.9 km/h 17.2 km/h 39 % 0.0 mm
15:45 32.7 °C 18.0 °C 1013.1 hPa ESE 14.0 km/h 16.6 km/h 40 % 0.0 mm
15:50 32.5 °C 17.0 °C 1013.1 hPa East 9.7 km/h 14.0 km/h 39 % 0.0 mm
15:56 32.7 °C 17.0 °C 1013.1 hPa East 10.5 km/h 14.0 km/h 38 % 0.0 mm
16:00 32.7 °C 17.0 °C 1013.1 hPa East 14.0 km/h 14.0 km/h 38 % 0.0 mm
16:06 32.9 °C 17.0 °C 1013.1 hPa NE 9.7 km/h 14.0 km/h 38 % 0.0 mm
16:11 32.7 °C 16.0 °C 1013.1 hPa ESE 9.7 km/h 13.7 km/h 37 % 0.0 mm
16:16 32.5 °C 16.0 °C 1013.1 hPa East 21.2 km/h 21.2 km/h 37 % 0.0 mm
16:20 32.9 °C 17.0 °C 1013.1 hPa South 6.4 km/h 21.2 km/h 38 % 0.0 mm
16:25 33.0 °C 17.0 °C 1013.1 hPa ESE 12.6 km/h 21.2 km/h 37 % 0.0 mm
16:30 33.0 °C 17.0 °C 1013.1 hPa East 10.8 km/h 16.9 km/h 37 % 0.0 mm
16:36 33.1 °C 17.0 °C 1013.1 hPa East 13.0 km/h 19.5 km/h 38 % 0.0 mm
16:41 33.1 °C 17.0 °C 1013.1 hPa ENE 10.1 km/h 19.5 km/h 37 % 0.0 mm
16:46 33.1 °C 17.0 °C 1012.1 hPa NE 9.0 km/h 15.4 km/h 38 % 0.0 mm
16:51 33.2 °C 17.0 °C 1012.1 hPa NE 9.0 km/h 15.4 km/h 37 % 0.0 mm
16:56 33.0 °C 17.0 °C 1013.1 hPa East 16.6 km/h 16.6 km/h 37 % 0.0 mm
17:01 33.0 °C 17.0 °C 1013.1 hPa NE 14.0 km/h 17.2 km/h 37 % 0.0 mm
17:03 32.8 °C 17.0 °C 1013.1 hPa ENE 9.3 km/h 17.2 km/h 38 % 0.0 mm
17:06 32.9 °C 17.0 °C 1013.1 hPa East 9.3 km/h 17.2 km/h 38 % 0.0 mm
17:11 33.0 °C 17.0 °C 1013.1 hPa ENE 13.7 km/h 14.0 km/h 37 % 0.0 mm
17:13 33.2 °C 17.0 °C 1013.1 hPa ENE 13.7 km/h 13.7 km/h 38 % 0.0 mm
17:18 33.1 °C 17.0 °C 1013.1 hPa East 11.6 km/h 13.7 km/h 38 % 0.0 mm
17:23 32.7 °C 17.0 °C 1013.1 hPa NE 10.1 km/h 11.6 km/h 38 % 0.0 mm
17:28 32.8 °C 17.0 °C 1013.1 hPa East 10.5 km/h 11.6 km/h 38 % 0.0 mm
17:33 32.5 °C 17.0 °C 1013.1 hPa NE 17.2 km/h 19.1 km/h 38 % 0.0 mm
17:35 32.6 °C 17.0 °C 1013.1 hPa NE 17.2 km/h 19.1 km/h 38 % 0.0 mm
17:40 32.3 °C 16.0 °C 1013.1 hPa NE 13.0 km/h 19.1 km/h 38 % 0.0 mm
17:45 32.5 °C 17.0 °C 1013.1 hPa ENE 10.5 km/h 17.2 km/h 39 % 0.0 mm
17:50 32.5 °C 17.0 °C 1013.1 hPa ESE 15.4 km/h 16.9 km/h 38 % 0.0 mm
17:55 32.6 °C 17.0 °C 1013.1 hPa East 9.3 km/h 16.3 km/h 39 % 0.0 mm
18:00 32.3 °C 16.0 °C 1013.1 hPa East 9.3 km/h 15.4 km/h 38 % 0.0 mm
18:05 32.2 °C 17.0 °C 1013.1 hPa ENE 12.6 km/h 12.6 km/h 39 % 0.0 mm
18:10 32.2 °C 17.0 °C 1013.1 hPa ENE 12.6 km/h 12.6 km/h 39 % 0.0 mm
18:15 32.1 °C 16.0 °C 1013.1 hPa ENE 12.6 km/h 12.6 km/h 38 % 0.0 mm
18:20 32.0 °C 17.0 °C 1013.1 hPa ESE 12.2 km/h 12.6 km/h 39 % 0.0 mm
18:25 32.3 °C 17.0 °C 1013.1 hPa ENE 16.3 km/h 16.3 km/h 39 % 0.0 mm
18:30 32.0 °C 17.0 °C 1013.1 hPa ENE 16.3 km/h 16.3 km/h 39 % 0.0 mm
18:35 31.7 °C 16.0 °C 1013.1 hPa ENE 16.3 km/h 16.3 km/h 39 % 0.0 mm
18:40 31.6 °C 17.0 °C 1013.1 hPa NE 11.9 km/h 16.3 km/h 40 % 0.0 mm
18:45 31.1 °C 16.0 °C 1013.1 hPa ENE 17.7 km/h 17.7 km/h 39 % 0.0 mm
18:50 30.9 °C 16.0 °C 1013.1 hPa NE 16.6 km/h 17.7 km/h 40 % 0.0 mm
18:55 30.9 °C 16.0 °C 1012.1 hPa East 12.6 km/h 17.7 km/h 40 % 0.0 mm
19:00 30.6 °C 16.0 °C 1012.1 hPa East 12.2 km/h 16.6 km/h 41 % 0.0 mm
19:05 30.7 °C 16.0 °C 1012.1 hPa ENE 15.8 km/h 15.8 km/h 41 % 0.0 mm
19:10 30.5 °C 16.0 °C 1012.1 hPa East 14.0 km/h 15.8 km/h 41 % 0.0 mm
19:15 30.4 °C 16.0 °C 1012.1 hPa NNE 10.5 km/h 15.8 km/h 41 % 0.0 mm
19:21 30.2 °C 16.0 °C 1012.1 hPa NE 14.0 km/h 20.1 km/h 41 % 0.0 mm
19:26 29.9 °C 15.0 °C 1012.1 hPa NE 9.7 km/h 20.1 km/h 42 % 0.0 mm
19:31 29.6 °C 15.0 °C 1012.1 hPa East 12.6 km/h 14.0 km/h 42 % 0.0 mm
19:36 29.5 °C 16.0 °C 1012.1 hPa East 6.1 km/h 12.6 km/h 43 % 0.0 mm
19:41 29.4 °C 16.0 °C 1012.1 hPa ESE 5.0 km/h 12.6 km/h 44 % 0.0 mm
19:46 29.2 °C 15.0 °C 1012.1 hPa NE 10.8 km/h 19.5 km/h 43 % 0.0 mm
19:51 28.9 °C 16.0 °C 1012.1 hPa East 12.6 km/h 19.5 km/h 44 % 0.0 mm
19:56 28.8 °C 16.0 °C 1012.1 hPa NE 7.9 km/h 14.0 km/h 45 % 0.0 mm
20:01 28.7 °C 16.0 °C 1012.1 hPa East 9.3 km/h 16.6 km/h 45 % 0.0 mm
20:06 28.7 °C 16.0 °C 1012.1 hPa ENE 1.8 km/h 16.6 km/h 45 % 0.0 mm
20:11 28.7 °C 16.0 °C 1011.1 hPa NE 15.4 km/h 15.4 km/h 45 % 0.0 mm
20:13 28.6 °C 16.0 °C 1011.1 hPa ENE 10.5 km/h 15.4 km/h 45 % 0.0 mm
20:18 28.6 °C 16.0 °C 1011.1 hPa East 13.7 km/h 20.6 km/h 45 % 0.0 mm
20:23 28.4 °C 16.0 °C 1011.1 hPa East 12.6 km/h 20.6 km/h 45 % 0.0 mm
20:28 28.2 °C 16.0 °C 1011.1 hPa ENE 12.6 km/h 15.8 km/h 45 % 0.0 mm
20:33 28.0 °C 15.0 °C 1011.1 hPa ESE 10.5 km/h 15.8 km/h 45 % 0.0 mm
20:38 27.9 °C 16.0 °C 1011.1 hPa East 9.7 km/h 15.8 km/h 46 % 0.0 mm
20:43 27.7 °C 15.0 °C 1011.1 hPa ENE 9.3 km/h 14.0 km/h 46 % 0.0 mm
20:48 27.5 °C 15.0 °C 1011.1 hPa East 15.8 km/h 19.5 km/h 46 % 0.0 mm
20:53 27.4 °C 15.0 °C 1011.1 hPa ENE 8.7 km/h 19.5 km/h 46 % 0.0 mm
20:58 27.2 °C 15.0 °C 1011.1 hPa East 12.2 km/h 17.7 km/h 46 % 0.0 mm
21:03 27.0 °C 15.0 °C 1011.1 hPa East 11.9 km/h 17.2 km/h 47 % 0.0 mm
21:08 26.9 °C 15.0 °C 1011.1 hPa East 13.7 km/h 17.2 km/h 47 % 0.0 mm
21:13 26.7 °C 15.0 °C 1011.1 hPa ENE 17.2 km/h 17.2 km/h 47 % 0.0 mm
21:18 26.5 °C 15.0 °C 1011.1 hPa ENE 10.5 km/h 17.2 km/h 47 % 0.0 mm
21:24 26.3 °C 15.0 °C 1011.1 hPa ENE 11.9 km/h 16.9 km/h 48 % 0.0 mm
21:29 26.2 °C 15.0 °C 1011.1 hPa ENE 9.7 km/h 20.6 km/h 48 % 0.0 mm
21:34 26.1 °C 14.0 °C 1011.1 hPa NE 9.3 km/h 20.6 km/h 48 % 0.0 mm
21:39 26.0 °C 15.0 °C 1011.1 hPa ESE 10.5 km/h 13.7 km/h 49 % 0.0 mm
21:44 25.8 °C 14.0 °C 1011.1 hPa NE 9.7 km/h 13.0 km/h 49 % 0.0 mm
21:49 25.7 °C 15.0 °C 1011.1 hPa ENE 11.9 km/h 13.7 km/h 50 % 0.0 mm
21:54 25.5 °C 15.0 °C 1011.1 hPa ENE 9.7 km/h 13.7 km/h 50 % 0.0 mm
21:59 25.4 °C 14.0 °C 1011.1 hPa NNE 7.9 km/h 12.2 km/h 50 % 0.0 mm
22:04 25.4 °C 14.0 °C 1011.1 hPa NE 9.3 km/h 13.0 km/h 50 % 0.0 mm
22:09 25.3 °C 15.0 °C 1011.1 hPa East 9.7 km/h 13.7 km/h 51 % 0.0 mm
22:14 25.1 °C 14.0 °C 1011.1 hPa ENE 6.4 km/h 13.7 km/h 51 % 0.0 mm
22:19 25.1 °C 14.0 °C 1011.1 hPa ENE 12.2 km/h 13.0 km/h 51 % 0.0 mm
22:24 25.0 °C 14.0 °C 1011.1 hPa East 11.1 km/h 13.0 km/h 51 % 0.0 mm
22:29 24.9 °C 15.0 °C 1010.0 hPa ENE 10.1 km/h 16.6 km/h 52 % 0.0 mm
22:34 24.7 °C 14.0 °C 1010.0 hPa ENE 9.0 km/h 16.6 km/h 52 % 0.0 mm
22:39 24.7 °C 14.0 °C 1010.0 hPa ESE 11.9 km/h 17.2 km/h 52 % 0.0 mm
22:44 24.7 °C 15.0 °C 1012.1 hPa ENE 9.3 km/h 17.2 km/h 53 % 0.0 mm
22:49 24.6 °C 15.0 °C 1012.1 hPa East 7.9 km/h 11.9 km/h 53 % 0.0 mm
22:54 24.5 °C 15.0 °C 1012.1 hPa ESE 7.6 km/h 12.2 km/h 53 % 0.0 mm
22:59 24.4 °C 14.0 °C 1010.0 hPa East 6.1 km/h 14.0 km/h 53 % 0.0 mm
23:04 24.3 °C 15.0 °C 1010.0 hPa East 12.6 km/h 14.0 km/h 54 % 0.0 mm
23:09 24.2 °C 15.0 °C 1010.0 hPa East 11.1 km/h 13.7 km/h 54 % 0.0 mm
23:15 24.1 °C 14.0 °C 1011.1 hPa ENE 4.0 km/h 12.6 km/h 54 % 0.0 mm
23:20 24.0 °C 14.0 °C 1011.1 hPa NE 10.1 km/h 11.9 km/h 55 % 0.0 mm
23:25 23.9 °C 14.0 °C 1011.1 hPa ENE 7.9 km/h 10.5 km/h 55 % 0.0 mm
23:30 23.9 °C 14.0 °C 1011.1 hPa ENE 7.9 km/h 12.6 km/h 55 % 0.0 mm
23:35 23.8 °C 14.0 °C 1011.1 hPa Calm   12.6 km/h 55 % 0.0 mm
23:40 23.7 °C 14.0 °C 1011.1 hPa East 9.3 km/h 12.2 km/h 56 % 0.0 mm
23:45 23.6 °C 14.0 °C 1011.1 hPa East 9.3 km/h 9.3 km/h 56 % 0.0 mm
23:50 23.5 °C 14.0 °C 1011.1 hPa NE 10.1 km/h 11.9 km/h 56 % 0.0 mm
23:55 23.5 °C 15.0 °C 1011.1 hPa NE 10.1 km/h 11.9 km/h 57 % 0.0 mm
Le Gheer Warneton
Courtoisie de Weather Underground - 2.25 mb

Mise a jour : 18/12/2017 17:33:13
Généré par Cumulus 1.9.4 (1099)